Starlink 35077

operational
NORAD ID: 65529 Int'l Des: 2025-200 Owner: SPXS Country: US Constellation: starlink
LEOCIRCULARRETROGRADE

Über Starlink 35077

Beschreibung wird geladen...

Live-Position

3D-Globus wird geladen...

Nächste Überflüge

Höhenverlauf

Altitude vs Time

uPlot chart will show altitude changes over time

Zweizeiliger Elementsatz

1 65529U 25200K 25350.78125465 .00001419 00000-0 10256-3 0 9991
2 65529 97.6048 58.0421 0001560 88.3310 271.8095 15.05651597 16652
Epoch: 16. Dez. 2025 • Age: 14 hours

Aktueller Status

Höhe 560.5 km
Geschwindigkeit 7.58 km/s
Subsatellitenpunkt -27.73°S, 21.93°E
Startdatum 6. Sept. 2025
Alter 0.2 years
Typ internet

Technische Details

Klassifizierung Payload
Masse 575.00 kg
Trockenmasse 530.00 kg
Gesamtmasse 575.00 kg
Länge 0.30 m
Durchmesser 4.10 m
Spannweite 29.00 m
Form Box + pan
Hersteller SPXS
Bus-Typ Starlink V2MO
Phasenstatus In Orbit
Besitzer/Staat SPXS/US

Große Konstellationen

Loading constellations...